MOL Partner — 3EBZ5 — position and weather

sailwx.info

Track history (hours):
 
Tides and Currents Weather Stations Pressure Air Temp Water Temp Dewpoint Dewpoint Depression Visibility Wind Speed Wind Dir Waves Ship Positions

MOL Partner

Last reported at 2014-Oct-27 12:12 UTC. Time now 2014-Nov-01 03:12 UTC.
Position N 37°08' E 004°45'.

Length 293 m; draft 11.8 m.

Type: Ship (hazmat cat D). MMSI: 371303000.

Date/timePositionNaut miles runAvg speedWind from/ knotsBaromVisibWave heightAir tempDewpointWater temp
2014-Oct-27 12:12N 37°08' E 004°45'2512.4
2014-Oct-27 10:11N 37°04' E 004°14'912.8
2014-Oct-27 09:28N 37°03' E 004°03'1212.6
2014-Oct-27 08:32N 37°01' E 003°48'1818.4
2014-Oct-27 07:33N 36°58' E 003°26'1713.5
2014-Oct-27 06:19N 36°55' E 003°05'1112.7
2014-Oct-27 05:29N 36°54' E 002°52'1212.5
2014-Oct-27 04:33N 36°52' E 002°38'1212.6
2014-Oct-27 03:34N 36°50' E 002°22'1312.4
2014-Oct-27 02:32N 36°48' E 002°07'1212.2
2014-Oct-27 01:33N 36°46' E 001°52'1212.4
2014-Oct-27 00:33N 36°44' E 001°37'1312.9
2014-Oct-26 23:33N 36°42' E 001°21'1212.3
2014-Oct-26 22:34N 36°40' E 001°06'1312.7
2014-Oct-26 21:33N 36°38' E 000°50'1918.7
2014-Oct-26 20:33N 36°35' E 000°27'1414.4
2014-Oct-26 19:33N 36°33' E 000°09'1412.5
2014-Oct-26 18:28N 36°31' W 000°07'1112.4
2014-Oct-26 17:33N 36°29' W 000°21'1212.0
2014-Oct-26 16:33N 36°27' W 000°36'1212.3
2014-Oct-26 15:33N 36°26' W 000°51'1312.6
2014-Oct-26 14:33N 36°25' W 001°07'1413.2
2014-Oct-26 13:30N 36°23' W 001°24'1313.4
2014-Oct-26 12:33N 36°21' W 001°39'17213.8
2014-Oct-26 00:05N 36°00' W 005°11'713.2
2014-Oct-25 23:33N 35°59' W 005°19'15512.7
2014-Oct-25 11:17N 36°08' W 008°31'1012.0
2014-Oct-25 10:29N 36°12' W 008°42'1913.6
2014-Oct-25 09:06N 36°19' W 009°04'2816.2
2014-Oct-25 07:22N 36°29' W 009°36'1012.3
2014-Oct-25 06:33N 36°32' W 009°48'1212.3
2014-Oct-25 05:33N 36°36' W 010°02'1212.4
2014-Oct-25 04:33N 36°40' W 010°17'1312.5
2014-Oct-25 03:33N 36°44' W 010°32'1212.2
2014-Oct-25 02:34N 36°47' W 010°47'1312.6
2014-Oct-25 01:33N 36°51' W 011°02'1212.5
2014-Oct-25 00:33N 36°54' W 011°17'1512.6
2014-Oct-24 23:22N 36°58' W 011°35'5814.6
2014-Oct-24 19:24N 37°14' W 012°44'1312.3
2014-Oct-24 18:21N 37°18' W 012°60'2412.4
2014-Oct-24 16:25N 37°25' W 013°29'4112.7
2014-Oct-24 13:11N 37°36' W 014°18'912.8
2014-Oct-24 12:31N 37°39' W 014°29'1412.5
2014-Oct-24 11:24N 37°43' W 014°46'1112.5
2014-Oct-24 10:32N 37°46' W 014°59'59813.0
2014-Oct-22 12:27N 40°02' W 027°26'2812.9
2014-Oct-22 10:17N 40°07' W 028°02'1820.2
2014-Oct-22 09:24N 40°11' W 028°25'1213.1
2014-Oct-22 08:31N 40°13' W 028°40'1212.3
2014-Oct-22 07:33N 40°15' W 028°55'4011.8
2014-Oct-22 04:07N 40°23' W 029°47'711.7
2014-Oct-22 03:32N 40°24' W 029°56'  
Track history (hours):
 
Tides and Currents Weather Stations Pressure Air Temp Water Temp Dewpoint Dewpoint Depression Visibility Wind Speed Wind Dir Waves Ship Positions

MOL Partner

Last reported at 2014-Oct-27 12:12 UTC. Time now 2014-Nov-01 03:12 UTC.
Position N 37°08' E 004°45'.

Length 293 m; draft 11.8 m.

Type: Ship (hazmat cat D). MMSI: 371303000.

Date/timePositionNaut miles runAvg speedWind from/ knotsBaromVisibWave heightAir tempDewpointWater temp
2014-Oct-27 12:12N 37°08' E 004°45'2512.4
2014-Oct-27 10:11N 37°04' E 004°14'912.8
2014-Oct-27 09:28N 37°03' E 004°03'1212.6
2014-Oct-27 08:32N 37°01' E 003°48'1818.4
2014-Oct-27 07:33N 36°58' E 003°26'1713.5
2014-Oct-27 06:19N 36°55' E 003°05'1112.7
2014-Oct-27 05:29N 36°54' E 002°52'1212.5
2014-Oct-27 04:33N 36°52' E 002°38'1212.6
2014-Oct-27 03:34N 36°50' E 002°22'1312.4
2014-Oct-27 02:32N 36°48' E 002°07'1212.2
2014-Oct-27 01:33N 36°46' E 001°52'1212.4
2014-Oct-27 00:33N 36°44' E 001°37'1312.9
2014-Oct-26 23:33N 36°42' E 001°21'1212.3
2014-Oct-26 22:34N 36°40' E 001°06'1312.7
2014-Oct-26 21:33N 36°38' E 000°50'1918.7
2014-Oct-26 20:33N 36°35' E 000°27'1414.4
2014-Oct-26 19:33N 36°33' E 000°09'1412.5
2014-Oct-26 18:28N 36°31' W 000°07'1112.4
2014-Oct-26 17:33N 36°29' W 000°21'1212.0
2014-Oct-26 16:33N 36°27' W 000°36'1212.3
2014-Oct-26 15:33N 36°26' W 000°51'1312.6
2014-Oct-26 14:33N 36°25' W 001°07'1413.2
2014-Oct-26 13:30N 36°23' W 001°24'1313.4
2014-Oct-26 12:33N 36°21' W 001°39'17213.8
2014-Oct-26 00:05N 36°00' W 005°11'713.2
2014-Oct-25 23:33N 35°59' W 005°19'15512.7
2014-Oct-25 11:17N 36°08' W 008°31'1012.0
2014-Oct-25 10:29N 36°12' W 008°42'1913.6
2014-Oct-25 09:06N 36°19' W 009°04'2816.2
2014-Oct-25 07:22N 36°29' W 009°36'1012.3
2014-Oct-25 06:33N 36°32' W 009°48'1212.3
2014-Oct-25 05:33N 36°36' W 010°02'1212.4
2014-Oct-25 04:33N 36°40' W 010°17'1312.5
2014-Oct-25 03:33N 36°44' W 010°32'1212.2
2014-Oct-25 02:34N 36°47' W 010°47'1312.6
2014-Oct-25 01:33N 36°51' W 011°02'1212.5
2014-Oct-25 00:33N 36°54' W 011°17'1512.6
2014-Oct-24 23:22N 36°58' W 011°35'5814.6
2014-Oct-24 19:24N 37°14' W 012°44'1312.3
2014-Oct-24 18:21N 37°18' W 012°60'2412.4
2014-Oct-24 16:25N 37°25' W 013°29'4112.7
2014-Oct-24 13:11N 37°36' W 014°18'912.8
2014-Oct-24 12:31N 37°39' W 014°29'1412.5
2014-Oct-24 11:24N 37°43' W 014°46'1112.5
2014-Oct-24 10:32N 37°46' W 014°59'59813.0
2014-Oct-22 12:27N 40°02' W 027°26'2812.9
2014-Oct-22 10:17N 40°07' W 028°02'1820.2
2014-Oct-22 09:24N 40°11' W 028°25'1213.1
2014-Oct-22 08:31N 40°13' W 028°40'1212.3
2014-Oct-22 07:33N 40°15' W 028°55'4011.8
2014-Oct-22 04:07N 40°23' W 029°47'711.7
2014-Oct-22 03:32N 40°24' W 029°56'  

Dump ship's entire track history